Hourly Data Report for April 16, 2019

OTTAWA INTL A
ONTARIO
Current Station Operator: NAVCAN

45°19'00.000" N
75°40'00.000" W
114.90 m
6106001
71628
YOW

Download Data

Hourly Data (April 2019)
Hourly Data Report for April 16, 2019
TIME
LST
Temp Definition
°C
Dew Point Definition
°C
Rel Hum Definition
%
Precip. Amount Definition
mm

Wind Dir Definition
10's deg

Wind Spd Definition
km/h
Visibility Definition
km
Stn Press Definition
kPa
Hmdx Definition


Wind Chill Definition


Weather Definition


00:00 1.1 -3.8 70   29 22 24.1 99.57     LegendNANA
01:00 1.3 -3.8 69   28 25 24.1 99.62     Mainly Clear
02:00 1.1 -3.7 70   29 22 24.1 99.63     LegendNANA
03:00 1.3 -3.9 68   28 28 24.1 99.73     LegendNANA
04:00 1.1 -4.0 69   27 23 24.1 99.82     Mainly Clear
05:00 1.1 -3.9 69   28 25 24.1 99.91     LegendNANA
06:00 1.6 -4.0 67   29 26 24.1 99.99     LegendNANA
07:00 2.5 -3.6 64   29 32 24.1 100.07     Clear
08:00 3.5 -3.6 60   28 27 24.1 100.14     LegendNANA
09:00 4.8 -2.9 57   29 26 24.1 100.15     LegendNANA
10:00 7.1 -1.7 54   28 26 24.1 100.16     Mainly Clear
11:00 8.5 -2.2 47   28 33 24.1 100.16     LegendNANA
12:00 8.6 -3.8 41   29 32 24.1 100.16     LegendNANA
13:00 9.3 -3.7 40   28 34 24.1 100.16     Mainly Clear
14:00 10.1 -3.5 38   28 26 24.1 100.14     LegendNANA
15:00 10.4 -3.7 37   26 24 24.1 100.14     LegendNANA
16:00 10.4 -3.8 37   29 20 24.1 100.14     Clear
17:00 10.0 -4.1 37   27 23 24.1 100.17     LegendNANA
18:00 9.1 -4.4 38   26 18 24.1 100.22     LegendNANA
19:00 6.9 -4.8 43   28 11 24.1 100.28     Mainly Clear
20:00 7.0 -4.5 44   29 9 24.1 100.29     LegendNANA
21:00 5.5 -4.2 50   25 9 24.1 100.35     LegendNANA
22:00 3.7 -4.4 56   23 5 24.1 100.36     Mainly Clear
23:00 3.8 -4.6 55   28 4 24.1 100.39     LegendNANA

Notes on Data Quality.

Legend

  • E = Estimated
  • M = Missing
  • NA = Not Available*
  • [empty] = Indicates an unobserved value
Date modified: